Regional Weather Roundup
Issued by NWS

Home | Current Version | Previous Version | Graphics & Text | Print | Product List | Glossary On
Versions: 1 2 3 4 5 6 7 8 9 10 11 12 13 14 15 16 17 18 19 20 21 22 23 24 25 26 27 28 29 30 31 32 33 34 35 36 37 38 39 40 41 42 43 44 45 46 47 48 49 50
000
ASUS43 KLOT 220912
RWRIL

ILLINOIS REGIONAL WEATHER ROUNDUP
NATIONAL WEATHER SERVICE CHICAGO/ROMEOVILLE IL
300 AM CST WED FEB 22 2017

NOTE: "FAIR" INDICATES FEW OR NO CLOUDS BELOW 12,000 FEET WITH NO
SIGNIFICANT WEATHER AND/OR OBSTRUCTIONS TO VISIBILITY.

* THESE STATIONS ARE NOT UNDER NWS QUALITY CONTROL. THEY ALSO MAY NOT
  REPORT WEATHER SUCH AS PRECIPITATION OR FOG.

ILZ001-002-007-009-015-016-024-221000-
NORTHWEST ILLINOIS

CITY           SKY/WX    TMP DP  RH WIND       PRES   REMARKS
MOLINE         CLEAR     54  51  90 SW8       29.80F
STERLING*      LGT RAIN  48  48 100 CALM      29.82F VSB 1/4
SAVANNA*       FOG       45  45  99 SE6       29.81S VSB<1/4
$$

ILZ003-004-008-010-011-017-018-221000-
NORTH CENTRAL ILLINOIS

CITY           SKY/WX    TMP DP  RH WIND       PRES   REMARKS
ROCKFORD       FOG       48  47  96 S3        29.83F VSB 1/16
FREEPORT*      FOG       49  49  99 SW12      29.82S VSB 3/4
ROCHELLE*      FOG       42  42 100 S7        29.82F VSB<1/4
DE KALB*       LGT RAIN  47  47  99 S7        29.83S VSB<1/4
PERU*          DRZL/FOG  52  52  99 SW10      29.84F VSB 1/4
$$

ILZ005-006-012>014-019>023-221000-
NORTHEAST ILLINOIS

CITY           SKY/WX    TMP DP  RH WIND       PRES   REMARKS
CHICAGO-OHARE  FOG       55  53  93 S10       29.82S VSB 3/4
CHICAGO-MIDWAY MOCLDY    53  50  89 S6        29.83F FOG
AURORA         FOG       50  48  93 S8        29.83F VSB<1/4
LANSING*       CLOUDY    49  49 100 S5        29.86S FOG
JOLIET*        CLOUDY    54  54 100 CALM      29.85S FOG
WAUKEGAN       FOG       49  48  97 SW6       29.79F VSB 1/4
DUPAGE AIRPORT FOG       53  51  93 SW10      29.82F VSB 1/4
KANKAKEE*      CLOUDY    51  50  98 CALM      29.87S FOG
WHEELING       CLEAR     50  49  96 S6        29.82F FOG
MORRIS*        FOG       49  48  98 CALM      29.83F VSB<1/4
ROMEOVILLE*    CLOUDY    52  52 100 S6        29.84F FOG
NORTHERLY ISL    N/A     54  51  90 SW7         N/A
$$

LMZ740>746-221000-
SOUTHERN LAKE MICHIGAN

STATION/POSITION SKY/WX   TEMP    WIND        PRES    VSBY  WAVE
                          AIR SEA DIR/SP/G                  HT/PER
                          (F)     (DEG/KT/KT) (MB)    (MI)  (FT/S)
HARRISON CRIB              55     200/ 12/ 12   N/A
BURNHAM HARBOR             54     170/  3/  8   N/A
CALUMET HARBOR             52     200/  5/  6 1010.1F
BURNS HARBOR               53     180/  9/ 12 1011.2
MICHIGAN CITY              53     160/  8/ 12   N/A
$$

ILZ025>027-034>036-040-047-049-050-058-095>099-221000-
WEST-CENTRAL ILLINOIS

CITY           SKY/WX    TMP DP  RH WIND       PRES   REMARKS
QUINCY         FOG       53  53 100 S7        29.84F VSB 1/4
GALESBURG*     FOG       46  46 100 S5        29.84S VSB 1/4
MACOMB*        CLOUDY    51  51 100 SW6       29.87S
JACKSONVILLE*  FOG       51  51  99 SW6       29.86S VSB 1/4
PITTSFIELD*    FOG       56  56 100 S9        29.87F VSB 1/4
$$

ILZ028>032-037-038-041>044-048-051>054-059>061-221000-
CENTRAL ILLINOIS

CITY           SKY/WX    TMP DP  RH WIND       PRES   REMARKS
PONTIAC        FOG       46  45  98 S3        29.86F VSB 1/4
BLOOMINGTON    FOG       48  46  93 S8        29.87F VSB 1/2
DECATUR        CLOUDY    51  49  92 SW5       29.87S FOG
PEORIA         FOG       55  55 100 SW7       29.84F VSB 1/4
LACON*         FOG       55  55 100 SW3       29.83F VSB 1
LINCOLN*       FOG       48  48 100 CALM      29.86F VSB<1/4
SPRINGFIELD    CLEAR     52  51  97 SW7       29.86F FOG
TAYLORVILLE      N/A     48  48  99 S7        29.88S FOG
$$

ILZ033-039-045-046-055>057-062-063-221000-
EAST-CENTRAL ILLINOIS

CITY           SKY/WX    TMP DP  RH WIND       PRES   REMARKS
CHAMPAIGN      FOG       47  45  93 SW5       29.87F VSB 1/2
RANTOUL*       FOG       49  49  99 S3        29.88S VSB 1
MATTOON        PTCLDY    52  52 100 SW5       29.87R FOG
PARIS*           N/A     48  48 100 S6        29.88S FOG
$$

ILZ079-100>102-221000-
SOUTHWEST ILLINOIS

CITY           SKY/WX    TMP DP  RH WIND       PRES   REMARKS
ALTON            N/A     48  48 100 S3        29.88F FOG
BELLEVILLE     FOG       48  48 100 CALM      29.87F VSB 1/2
CAHOKIA*       FOG       46  45  96 CALM      29.87F VSB 1/4
SPARTA*        CLOUDY    54  53  97 CALM      29.90S
$$

ILZ064>066-069>071-074>076-080>082-084>086-088>090-092>094-221000-
SOUTH-CENTRAL ILLINOIS

CITY           SKY/WX    TMP DP  RH WIND       PRES   REMARKS
CARBONDALE     CLOUDY    50  50 100 CALM      29.90R FOG
CAIRO*         CLOUDY    56  55  95 CALM      29.87S
EFFINGHAM*     FOG       50  50 100 CALM      29.90S VSB 1/4
MARION         FOG       52  52 100 CALM      29.90R VSB 3/4
MT. VERNON     CLOUDY    48  48 100 CALM      29.89S FOG
CENTRALIA*     MOCLDY    51  51 100 S3        29.89S FOG
SALEM*         FOG       53  51  95 CALM      29.89R VSB 1
METROPOLIS*    CLOUDY    56  56  97 CALM      29.88S FOG
$$

ILZ067-068-072-073-078-083-087-091-221000-
SOUTHEAST ILLINOIS

CITY           SKY/WX    TMP DP  RH WIND       PRES   REMARKS
LAWRENCEVILLE  MOCLDY    51  51 100 S3        29.89S FOG
FLORA*         FOG       50  49  98 S3        29.89S VSB 1/4
FAIRFIELD*     CLOUDY    52  52 100 CALM      29.88S FOG
HARRISBURG*    FOG       51  51 100 CALM      29.89S VSB 1
ROBINSON*      CLOUDY    48  48 100 CALM      29.89S FOG
CARMI*         PTCLDY    49  49 100 CALM      29.89R FOG
$$

ABBREVIATIONS USED IN REMARKS
   TC - TEMPERATURE IN CELSIUS
  WCI - WIND CHILL INDEX
   HX - HEAT INDEX
  VSB - VISIBILITY
$$





USA.gov is the U.S. government's official web portal to all federal, state and local government web resources and services.